SV1TGC Weather Reports


time (UTC)temp
C
wind
direction
speed
KPH
gust
KPH
rain 1hr
cm
rain 24hr
cm
rain mn
cm
humidity
%
barometer
mb
20260507201033 18 349 0.0 4.8 0.00 0.00 0.00 57 1018.8
20260507200534 18 0 0.0 9.7 0.00 0.00 0.00 56 1018.8
20260507195538 18 349 4.8 9.7 0.00 0.00 0.00 56 1018.7
20260507195036 18 0 3.2 9.7 0.00 0.00 0.00 55 1018.8
20260507194545 18 348 1.6 12.9 0.00 0.00 0.00 55 1018.8
20260507194033 18 347 3.2 12.9 0.00 0.00 0.00 55 1018.8
20260507193535 18 0 4.8 12.9 0.00 0.00 0.00 55 1018.7
20260507193111 18 349 3.2 9.7 0.00 0.00 0.00 56 1018.8
20260507192532 18 350 3.2 9.7 0.00 0.00 0.00 55 1018.6
20260507192034 18 348 4.8 12.9 0.00 0.00 0.00 55 1018.6
20260507191557 18 348 3.2 12.9 0.00 0.00 0.00 55 1018.6
20260507191034 18 348 3.2 16.1 0.00 0.00 0.00 55 1018.5
20260507190534 18 347 4.8 16.1 0.00 0.00 0.00 55 1018.4
20260507190048 18 349 6.4 16.1 0.00 0.00 0.00 56 1018.5
20260507185533 18 348 4.8 16.1 0.00 0.00 0.00 55 1018.6
20260507185033 18 350 4.8 16.1 0.00 0.00 0.00 56 1018.6
20260507184547 18 349 6.4 16.1 0.00 0.00 0.00 56 1018.7
20260507184033 18 350 4.8 16.1 0.00 0.00 0.00 55 1018.7
20260507183533 18 348 4.8 14.5 0.00 0.00 0.00 55 1018.5
20260507183059 18 349 3.2 14.5 0.00 0.00 0.00 55 1018.5
20260507182533 18 350 3.2 14.5 0.00 0.00 0.00 54 1018.5
20260507182033 18 349 4.8 14.5 0.00 0.00 0.00 54 1018.5
20260507181546 18 348 3.2 12.9 0.00 0.00 0.00 54 1018.5
20260507181034 18 348 4.8 12.9 0.00 0.00 0.00 54 1018.5
20260507180533 18 349 4.8 9.7 0.00 0.00 0.00 53 1018.5
20260507180056 18 0 1.6 9.7 0.00 0.00 0.00 53 1018.5
20260507175533 18 350 3.2 9.7 0.00 0.00 0.00 53 1018.4
20260507175034 18 349 4.8 9.7 0.00 0.00 0.00 53 1018.4
20260507174549 18 348 3.2 8.0 0.00 0.00 0.00 53 1018.4
20260507174035 18 348 3.2 8.0 0.00 0.00 0.00 52 1018.3
20260507173533 18 349 1.6 8.0 0.00 0.00 0.00 53 1018.4
20260507173123 18 350 0.0 8.0 0.00 0.00 0.00 54 1018.5
20260507172533 18 350 0.0 8.0 0.00 0.00 0.00 53 1018.6
20260507172036 18 0 1.6 9.7 0.00 0.00 0.00 53 1018.5
20260507171548 18 0 3.2 14.5 0.00 0.00 0.00 52 1018.6
20260507171033 18 350 3.2 16.1 0.00 0.00 0.00 52 1018.4
20260507170535 18 348 6.4 17.7 0.00 0.00 0.00 52 1018.3
20260507170049 18 349 6.4 17.7 0.00 0.00 0.00 52 1018.0
20260507165534 19 349 8.0 17.7 0.00 0.00 0.00 53 1017.9
20260507165034 19 350 9.7 17.7 0.00 0.00 0.00 53 1017.8
20260507164553 18 350 6.4 17.7 0.00 0.00 0.00 53 1017.7
20260507164035 18 350 8.0 16.1 0.00 0.00 0.00 54 1017.8
20260507163533 18 348 6.4 19.3 0.00 0.00 0.00 55 1018.0
20260507163051 18 348 6.4 19.3 0.00 0.00 0.00 56 1018.2
20260507162533 18 350 11.3 17.7 0.00 0.00 0.00 56 1018.1
20260507162033 18 350 8.0 16.1 0.00 0.00 0.00 57 1018.2
20260507161605 19 349 9.7 17.7 0.00 0.00 0.00 57 1018.1
20260507161033 19 348 9.7 17.7 0.00 0.00 0.00 58 1018.2
20260507160534 19 349 8.0 19.3 0.00 0.00 0.00 58 1017.9
20260507155533 19 349 11.3 19.3 0.00 0.00 0.00 59 1018.1
20260507155034 19 349 8.0 22.5 0.00 0.00 0.00 59 1018.3
20260507154548 19 348 6.4 22.5 0.00 0.00 0.00 59 1018.2
20260507154034 19 349 8.0 20.9 0.00 0.00 0.00 58 1018.4
20260507153533 20 349 9.7 20.9 0.00 0.00 0.00 59 1018.3
20260507153046 20 349 8.0 16.1 0.00 0.00 0.00 58 1018.4
20260507152533 20 349 9.7 19.3 0.00 0.00 0.00 59 1018.5
20260507152033 20 350 8.0 19.3 0.00 0.00 0.00 60 1018.5
20260507151544 20 348 9.7 19.3 0.00 0.00 0.00 59 1018.5
20260507151033 20 350 4.8 19.3 0.00 0.00 0.00 61 1018.4
20260507150536 20 350 8.0 19.3 0.00 0.00 0.00 61 1018.4
20260507150051 20 350 8.0 19.3 0.00 0.00 0.00 61 1018.4
20260507145533 20 349 11.3 19.3 0.00 0.00 0.00 60 1018.4
20260507145033 20 350 8.0 19.3 0.00 0.00 0.00 59 1018.4
20260507144557 20 349 9.7 19.3 0.00 0.00 0.00 59 1018.4
20260507144036 20 350 6.4 19.3 0.00 0.00 0.00 60 1018.5
20260507143533 20 348 11.3 20.9 0.00 0.00 0.00 59 1018.5
20260507143047 20 350 8.0 20.9 0.00 0.00 0.00 59 1018.4
20260507142535 20 348 12.9 20.9 0.00 0.00 0.00 59 1018.4
20260507142036 20 349 14.5 22.5 0.00 0.00 0.00 58 1018.4
20260507141554 20 348 14.5 22.5 0.00 0.00 0.00 58 1018.4
20260507141033 21 349 9.7 24.1 0.00 0.00 0.00 58 1018.4
20260507140535 20 348 9.7 24.1 0.00 0.00 0.00 56 1018.3
20260507140058 21 348 12.9 24.1 0.00 0.00 0.00 55 1018.1
20260507135535 21 349 12.9 27.4 0.00 0.00 0.00 55 1018.0
20260507135033 21 350 12.9 27.4 0.00 0.00 0.00 55 1018.1
20260507134602 21 349 12.9 24.1 0.00 0.00 0.00 53 1018.1
20260507134035 21 349 17.7 24.1 0.00 0.00 0.00 49 1017.9
20260507133536 21 349 14.5 25.7 0.00 0.00 0.00 46 1018.1
20260507133052 21 348 16.1 25.7 0.00 0.00 0.00 47 1018.0
20260507132533 21 349 12.9 25.7 0.00 0.00 0.00 51 1018.0
20260507132035 21 349 14.5 27.4 0.00 0.00 0.00 51 1018.0
20260507131556 21 351 14.5 27.4 0.00 0.00 0.00 54 1018.0
20260507131034 21 350 16.1 27.4 0.00 0.00 0.00 55 1018.1
20260507130534 21 349 11.3 24.1 0.00 0.00 0.00 59 1018.1
20260507130050 21 350 12.9 24.1 0.00 0.00 0.00 59 1018.1
20260507125535 21 349 14.5 24.1 0.00 0.00 0.00 61 1018.1
20260507125036 21 349 14.5 24.1 0.00 0.00 0.00 64 1018.2
20260507124554 21 348 12.9 24.1 0.00 0.00 0.00 67 1018.6
20260507124035 21 349 12.9 24.1 0.00 0.00 0.00 67 1018.6
20260507123535 21 349 11.3 22.5 0.00 0.00 0.00 69 1018.5
20260507123051 20 348 6.4 19.3 0.00 0.00 0.00 70 1018.5
20260507122533 20 349 8.0 20.9 0.00 0.00 0.00 68 1018.5
20260507122035 20 349 9.7 20.9 0.00 0.00 0.00 68 1018.6
20260507121552 20 348 9.7 20.9 0.00 0.00 0.00 68 1018.7
20260507121032 20 350 8.0 19.3 0.00 0.00 0.00 69 1018.6
20260507120535 20 349 9.7 22.5 0.00 0.00 0.00 68 1018.6
20260507120051 20 349 8.0 22.5 0.00 0.00 0.00 68 1018.7
20260507115536 20 350 4.8 19.3 0.00 0.00 0.00 68 1018.5
20260507115033 20 350 12.9 20.9 0.00 0.00 0.00 65 1018.6
20260507114555 21 350 11.3 20.9 0.00 0.00 0.00 64 1018.8
20260507114035 21 350 8.0 19.3 0.00 0.00 0.00 63 1018.8
20260507113534 21 348 8.0 22.5 0.00 0.00 0.00 62 1018.8
20260507113050 21 349 9.7 22.5 0.00 0.00 0.00 63 1018.8
20260507112533 21 349 11.3 20.9 0.00 0.00 0.00 62 1018.9
20260507112033 21 349 8.0 17.7 0.00 0.00 0.00 60 1019.1
20260507111559 21 350 8.0 17.7 0.00 0.00 0.00 63 1019.0
20260507111033 20 351 4.8 16.1 0.00 0.00 0.00 67 1018.9
20260507110533 20 350 6.4 16.1 0.00 0.00 0.00 68 1018.8
20260507110046 20 350 8.0 19.3 0.00 0.00 0.00 68 1018.9
20260507105533 21 350 6.4 19.3 0.00 0.00 0.00 67 1018.9
20260507105033 21 350 8.0 24.1 0.00 0.00 0.00 63 1018.9
20260507104554 21 350 12.9 24.1 0.00 0.00 0.00 62 1018.8
20260507104034 21 348 12.9 20.9 0.00 0.00 0.00 63 1018.7
20260507103534 21 350 8.0 17.7 0.00 0.00 0.00 65 1018.6
20260507103048 21 350 9.7 16.1 0.00 0.00 0.00 66 1018.3
20260507102533 21 348 9.7 16.1 0.00 0.00 0.00 67 1018.3
20260507102033 21 350 8.0 14.5 0.00 0.00 0.00 66 1018.3
20260507101601 21 350 4.8 17.7 0.00 0.00 0.00 66 1018.4
20260507101034 21 349 4.8 17.7 0.00 0.00 0.00 68 1018.3
20260507100534 20 350 9.7 17.7 0.00 0.00 0.00 69 1018.4
20260507100051 20 350 9.7 20.9 0.00 0.00 0.00 67 1018.5
20260507095535 21 350 11.3 20.9 0.00 0.00 0.00 65 1018.6
20260507095034 21 350 11.3 20.9 0.00 0.00 0.00 64 1018.5
20260507094550 21 350 11.3 20.9 0.00 0.00 0.00 63 1018.5
20260507094033 21 350 9.7 20.9 0.00 0.00 0.00 62 1018.3
20260507093533 22 347 11.3 17.7 0.00 0.00 0.00 61 1018.3
20260507093047 21 350 9.7 17.7 0.00 0.00 0.00 62 1018.3
20260507092533 21 351 8.0 16.1 0.00 0.00 0.00 64 1018.4
20260507092033 21 350 8.0 16.1 0.00 0.00 0.00 63 1018.4
20260507091543 21 350 8.0 16.1 0.00 0.00 0.00 61 1018.3
20260507091033 21 349 6.4 16.1 0.00 0.00 0.00 63 1018.3
20260507090534 21 350 3.2 16.1 0.00 0.00 0.00 66 1018.3
20260507090049 21 350 6.4 16.1 0.00 0.00 0.00 67 1018.3
20260507085533 21 347 6.4 14.5 0.00 0.00 0.00 70 1018.3
20260507085034 20 349 3.2 14.5 0.00 0.00 0.00 71 1018.4
20260507084548 20 349 6.4 16.1 0.00 0.00 0.00 70 1018.4
20260507084034 20 350 6.4 16.1 0.00 0.00 0.00 69 1018.4
20260507083535 20 350 9.7 16.1 0.00 0.00 0.00 69 1018.3
20260507083048 20 350 8.0 14.5 0.00 0.00 0.00 67 1018.2
20260507082532 20 351 6.4 16.1 0.00 0.00 0.00 67 1018.2
20260507082033 20 350 8.0 16.1 0.00 0.00 0.00 70 1018.1
20260507081549 20 351 8.0 14.5 0.00 0.00 0.00 69 1018.1
20260507081034 20 350 6.4 14.5 0.00 0.00 0.00 71 1018.1
20260507080536 20 351 4.8 14.5 0.00 0.00 0.00 72 1018.2
20260507080047 20 350 6.4 14.5 0.00 0.00 0.00 73 1018.1
20260507075533 20 351 6.4 14.5 0.00 0.00 0.00 73 1018.0
20260507075033 20 351 6.4 14.5 0.00 0.00 0.00 73 1017.9
20260507074550 20 350 3.2 14.5 0.00 0.00 0.00 73 1018.0
20260507074035 20 351 8.0 14.5 0.00 0.00 0.00 73 1017.9
20260507073533 20 351 6.4 12.9 0.00 0.00 0.00 72 1017.8
20260507073046 20 350 1.6 8.0 0.00 0.00 0.00 73 1017.8
20260507072534 20 351 1.6 9.7 0.00 0.00 0.00 74 1017.8
20260507072032 19 351 3.2 9.7 0.00 0.00 0.00 73 1017.8
20260507071551 19 351 1.6 9.7 0.00 0.00 0.00 73 1017.8
20260507071036 19 351 3.2 9.7 0.00 0.00 0.00 74 1018.0
20260507070533 18 350 4.8 9.7 0.00 0.00 0.00 74 1018.0
20260507070053 18 350 3.2 16.1 0.00 0.00 0.00 73 1018.1
20260507065532 18 350 6.4 17.7 0.00 0.00 0.00 74 1018.2
20260507065033 18 351 11.3 17.7 0.00 0.00 0.00 72 1018.1
20260507064606 18 351 11.3 17.7 0.00 0.00 0.00 70 1018.1
20260507064034 19 351 6.4 12.9 0.00 0.00 0.00 69 1018.1
20260507063533 18 350 4.8 12.9 0.00 0.00 0.00 67 1018.0
20260507063052 19 351 4.8 12.9 0.00 0.00 0.00 66 1018.0
20260507062533 19 351 3.2 8.0 0.00 0.00 0.00 67 1017.9
20260507062033 19 350 4.8 8.0 0.00 0.00 0.00 65 1018.0
20260507061547 19 351 1.6 14.5 0.00 0.00 0.00 67 1018.0
20260507061033 18 350 4.8 14.5 0.00 0.00 0.00 67 1018.0
20260507060533 18 350 4.8 12.9 0.00 0.00 0.00 66 1017.9
20260507060052 18 350 4.8 12.9 0.00 0.00 0.00 65 1017.9
20260507055533 19 351 3.2 8.0 0.00 0.00 0.00 64 1017.8
20260507055032 19 350 3.2 6.4 0.00 0.00 0.00 61 1017.8
20260507054545 19 351 3.2 6.4 0.00 0.00 0.00 60 1017.8
20260507054037 20 0 1.6 4.8 0.00 0.00 0.00 59 1017.6
20260507053533 20 0 0.0 6.4 0.00 0.00 0.00 57 1017.5
20260507053045 19 337 1.6 6.4 0.00 0.00 0.00 57 1017.4
20260507052534 18 344 1.6 6.4 0.00 0.00 0.00 59 1017.3
20260507052034 18 0 1.6 6.4 0.00 0.00 0.00 61 1017.1
20260507051542 17 340 0.0 6.4 0.00 0.00 0.00 65 1017.0
20260507051032 17 320 0.0 6.4 0.00 0.00 0.00 67 1017.0
20260507050532 17 321 1.6 6.4 0.00 0.00 0.00 70 1016.8
20260507050048 16 0 1.6 8.0 0.00 0.00 0.00 71 1016.8
20260507045535 16 352 3.2 8.0 0.00 0.00 0.00 74 1016.9
20260507045034 16 352 3.2 8.0 0.00 0.00 0.00 76 1016.9
20260507044548 15 355 3.2 8.0 0.00 0.00 0.00 77 1016.8
20260507044033 15 355 4.8 8.0 0.00 0.00 0.00 78 1016.8
20260507043533 15 355 3.2 8.0 0.00 0.00 0.00 78 1016.8
20260507043052 14 21 1.6 6.4 0.00 0.00 0.00 79 1016.8
20260507042533 14 29 3.2 6.4 0.00 0.00 0.00 81 1016.8
20260507042034 13 0 0.0 1.6 0.00 0.00 0.00 81 1016.9
20260507041600 13 0 0.0 8.0 0.00 0.00 0.00 81 1016.9
20260507041035 13 0 0.0 8.0 0.00 0.00 0.00 80 1017.0
20260507040534 13 333 3.2 8.0 0.00 0.00 0.00 80 1017.0
20260507040055 12 333 0.0 4.8 0.00 0.00 0.00 79 1017.0
20260507035533 12 0 0.0 4.8 0.00 0.00 0.00 79 1017.0
20260507035034 12 333 1.6 4.8 0.00 0.00 0.00 78 1017.1
20260507034549 12 333 0.0 0.0 0.00 0.00 0.00 78 1017.0
20260507034033 13 0 0.0 3.2 0.00 0.00 0.00 78 1016.9
20260507033536 13 0 0.0 3.2 0.00 0.00 0.00 78 1016.7
20260507033047 13 0 0.0 1.6 0.00 0.00 0.00 78 1016.7
20260507032533 13 0 0.0 6.4 0.00 0.00 0.00 78 1016.7
20260507032033 12 0 0.0 8.0 0.00 0.00 0.00 77 1016.7
20260507031550 12 333 3.2 11.3 0.00 0.00 0.00 78 1016.7
20260507031033 12 355 4.8 11.3 0.00 0.00 0.00 78 1016.7
20260507030532 12 355 6.4 9.7 0.00 0.00 0.00 79 1016.7
20260507030056 12 355 0.0 6.4 0.00 0.00 0.00 79 1016.6
20260507025532 12 0 0.0 0.0 0.00 0.00 0.00 79 1016.6
20260507025033 12 0 0.0 0.0 0.00 0.00 0.00 78 1016.6
20260507024548 12 0 0.0 0.0 0.00 0.00 0.00 78 1016.6
20260507024033 12 0 0.0 0.0 0.00 0.00 0.00 77 1016.8
20260507023533 13 0 0.0 0.0 0.00 0.00 0.00 76 1016.7
20260507023103 13 0 0.0 3.2 0.00 0.00 0.00 76 1016.8
20260507022533 13 0 0.0 6.4 0.00 0.00 0.00 77 1016.7
20260507022034 13 0 0.0 6.4 0.00 0.00 0.00 78 1016.7
20260507021552 13 347 0.0 4.8 0.00 0.00 0.00 78 1016.6
20260507021033 12 347 3.2 4.8 0.00 0.00 0.00 78 1016.6
20260507020533 12 0 0.0 1.6 0.00 0.00 0.00 78 1016.8
20260507020053 12 0 0.0 1.6 0.00 0.00 0.00 77 1016.7
20260507015532 13 0 0.0 4.8 0.00 0.00 0.00 77 1016.7
20260507015033 13 0 0.0 4.8 0.00 0.00 0.00 77 1016.6
20260507014601 13 0 1.6 4.8 0.00 0.00 0.00 77 1016.6
20260507014033 13 347 1.6 4.8 0.00 0.00 0.00 76 1016.6
20260507013533 13 347 0.0 4.8 0.00 0.00 0.00 75 1016.3
20260507013109 13 0 0.0 4.8 0.00 0.00 0.00 75 1016.5
20260507012535 13 352 0.0 4.8 0.00 0.00 0.00 75 1016.3
20260507012034 13 352 1.6 4.8 0.00 0.00 0.00 73 1016.2
20260507011548 13 352 1.6 4.8 0.00 0.00 0.00 73 1016.1
20260507011033 13 297 0.0 3.2 0.00 0.00 0.00 73 1015.9
20260507010533 14 0 0.0 3.2 0.00 0.00 0.00 73 1015.9
20260507010047 14 0 0.0 3.2 0.00 0.00 0.00 73 1015.8
20260507005534 13 297 0.0 3.2 0.00 0.00 0.00 73 1015.8
20260507005034 14 297 0.0 3.2 0.00 0.00 0.00 72 1015.9
20260507004545 14 0 0.0 6.4 0.00 0.00 0.00 72 1015.9
20260507004033 14 297 0.0 8.0 0.00 0.00 0.00 72 1015.8
20260507003534 14 298 4.8 8.0 0.00 0.00 0.00 73 1015.8
20260507003041 13 105 3.2 8.0 0.00 0.00 0.00 73 1015.7
20260507002533 13 14 4.8 8.0 0.00 0.00 0.00 74 1015.8
20260507002033 13 355 4.8 8.0 0.00 0.00 0.00 75 1015.9
20260507001608 13 318 3.2 4.8 0.00 0.00 0.00 74 1015.9
20260507001032 13 318 1.6 3.2 0.00 0.00 0.00 73 1016.0
20260507000535 13 318 1.6 3.2 0.00 0.00 0.00 72 1016.2
20260507000049 13 318 0.0 1.6 0.00 0.00 0.00 72 1016.2
20260506235535 13 0 0.0 1.6 0.00 0.00 0.00 71 1016.3
20260506235033 14 0 0.0 1.6 0.00 0.00 0.00 70 1016.3
20260506234548 14 0 0.0 0.0 0.00 0.00 0.00 69 1016.4
20260506234033 14 0 0.0 0.0 0.00 0.00 0.00 67 1016.3
20260506233533 15 0 0.0 1.6 0.00 0.00 0.00 67 1016.4
20260506233048 15 0 0.0 3.2 0.00 0.00 0.00 66 1016.4
20260506232533 15 0 0.0 3.2 0.00 0.00 0.00 65 1016.5
20260506232033 15 318 0.0 6.4 0.00 0.00 0.00 65 1016.4
20260506231549 15 318 1.6 6.4 0.00 0.00 0.00 65 1016.3
20260506231034 15 318 3.2 6.4 0.00 0.00 0.00 65 1016.4
20260506230534 15 319 1.6 6.4 0.00 0.00 0.00 66 1016.4
20260506230045 15 319 3.2 6.4 0.00 0.00 0.00 66 1016.4
20260506225534 15 319 1.6 3.2 0.00 0.00 0.00 65 1016.4
20260506225034 15 0 0.0 1.6 0.00 0.00 0.00 64 1016.5
20260506224549 15 0 0.0 3.2 0.00 0.00 0.00 64 1016.5
20260506224037 15 0 0.0 4.8 0.00 0.00 0.00 64 1016.6
20260506223533 15 319 1.6 8.0 0.00 0.00 0.00 63 1016.7
20260506223103 15 319 1.6 8.0 0.00 0.00 0.00 63 1016.7
20260506222535 15 355 3.2 8.0 0.00 0.00 0.00 63 1016.7
20260506222036 15 355 3.2 8.0 0.00 0.00 0.00 63 1016.7
20260506221549 15 316 3.2 6.4 0.00 0.00 0.00 64 1016.7
20260506221033 15 316 3.2 6.4 0.00 0.00 0.00 65 1016.8
20260506220533 15 316 1.6 6.4 0.00 0.00 0.00 66 1016.8
20260506220050 14 316 3.2 4.8 0.00 0.00 0.00 67 1016.8
20260506215533 14 316 1.6 4.8 0.00 0.00 0.00 68 1016.9
20260506215033 14 316 3.2 4.8 0.00 0.00 0.00 68 1016.9
20260506214547 14 316 0.0 3.2 0.00 0.00 0.00 67 1016.9
20260506214033 14 0 0.0 3.2 0.00 0.00 0.00 67 1016.9
20260506213534 14 316 0.0 1.6 0.00 0.00 0.00 67 1017.0
20260506213047 14 0 0.0 1.6 0.00 0.00 0.00 67 1017.0
20260506212533 14 316 0.0 1.6 0.00 0.00 0.00 66 1017.2
20260506212036 14 0 0.0 1.6 0.00 0.00 0.00 65 1017.1
20260506211555 14 0 0.0 0.0 0.00 0.00 0.00 64 1017.1
20260506211036 15 0 0.0 0.0 0.00 0.00 0.00 64 1017.2
20260506210536 15 0 0.0 1.6 0.00 0.00 0.00 63 1017.2
20260506210053 15 0 0.0 1.6 0.00 0.00 0.00 62 1017.3
20260506205536 15 0 0.0 1.6 0.00 0.00 0.00 62 1017.3
20260506205033 15 0 0.0 1.6 0.00 0.00 0.00 62 1017.2
20260506204548 15 0 0.0 1.6 0.00 0.00 0.00 62 1017.2
20260506204033 15 0 0.0 1.6 0.00 0.00 0.00 62 1017.1
20260506203534 15 0 0.0 1.6 0.00 0.00 0.00 62 1017.1
20260506203049 15 316 0.0 3.2 0.00 0.00 0.00 61 1017.2
20260506202533 15 0 0.0 3.2 0.00 0.00 0.00 61 1017.2
20260506202034 15 0 0.0 0.0 0.00 0.00 0.00 61 1017.2
20260506201554 15 0 0.0 0.0 0.00 0.00 0.00 60 1017.1